CAPE
0 0 2 3 3 3 3 1 4 2 1 2 1 0 1 1 0 0 0 0 0 0 0 0 0 0 0 0 0 0 0 0 0 0 0 0 0 0 0 0 0 0 0 7 40
0 0 0 1 1 2 2 2 2 0 1 0 1 0 0 0 0 0 0 0 0 0 0 0 0 0 0 0 0 0 0 0 0 0 0 0 0 0 0 0 0 0 0 0 320
0 0 0 0 0 1 1 1 1 1 0 0 0 0 0 0 0 0 0 0 0 0 0 0 0 0 0 0 0 0 0 0 0 0 0 0 0 0 0 0 0 0 0 0 3
0 0 0 0 0 0 3 0 1 1 1 1 0 1 1 0 0 0 0 0 0 0 0 0 0 0 0 0 0 0 0 0 0 0 0 0 0 0 0 0 0 0 0 0 0
4 2 3 0 0 0 1 1 0 1 1 2 1 0 1 0 0 0 0 0 0 0 0 0 0 0 0 0 0 0 0 0 0 0 0 0 0 0 0 0 0 0 0 0 0
1 3 3 5 3 2 2 2 1 1 1 1 1 0 0 0 0 0 0 0 0 0 0 0 0 0 0 0 0 0 0 0 0 0 0 0 0 0 0 0 0 0 0 0 0
1 1 1 3 4 1 0 1 1 4 1 1 0 1 0 0 0 0 0 0 0 0 0 0 0 0 0 0 0 0 0 0 0 0 0 0 0 0 0 0 0 0 0 0 0
1 3 1 2 4 2 1 1 2 1 1 1 1 0 0 0 0 0 0 0 0 0 0 0 0 0 0 0 0 0 0 0 0 0 0 0 0 0 0 0 0 0 0 0 0
2 2 1 2 3 0 2 1 0 2 1 1 0 0 0 0 0 0 0 0 0 0 0 0 0 0 0 0 0 0 0 0 0 0 0 0 0 0 0 0 0 0 0 0 0
2 1 1 1 3 0 0 0 0 1 1 2 0 0 0 0 0 0 0 0 0 0 0 0 0 0 0 0 0 0 0 0 0 0 0 0 0 0 0 0 0 0 0 0 0
2 2 1 1 1 3 0 0 0 0 0 0 0 0 0 0 0 0 0 0 0 0 0 0 0 0 0 0 0 0 0 0 0 0 0 0 0 0 0 0 0 0 0 0 0
4 4 2 2 2 2 0 0 0 0 0 0 0 0 0 0 0 0 0 0 0 0 0 0 0 0 0 0 0 0 0 0 0 0 0 0 0 0 0 0 0 0 0 0 0
0 2 2 2 2 2 0 0 0 0 0 0 0 0 0 0 0 0 0 0 0 0 0 0 0 0 0 0 0 0 0 0 0 0 0 0 0 0 0 0 0 0 0 0 0
0 1 3 1 0 0 0 0 0 0 0 0 0 0 0 0 0 0 0 0 0 0 0 0 0 0 0 0 0 0 0 0 0 0 0 0 0 0 0 0 0 0 0 0 0
0 1 2 4 0 0 0 0 0 0 0 0 0 0 0 0 0 0 0 0 0 0 0 0 0 0 0 0 0 0 0 0 0 0 0 0 0 0 0 0 0 0 0 0 0
0 1 4 0 1 0 0 0 0 0 0 0 0 0 0 0 0 0 0 0 0 0 0 0 0 0 0 0 0 0 0 0 0 0 0 0 0 0 0 0 0 0 0 0 0
0 0 2 0 0 0 0 0 0 0 6 29 0 0 0 0 0 0 0 0 0 0 0 0 0 0 0 0 0 0 0 0 0 0 0 0 0 0 0 0 0 0 0 0 0
0 0 0 0 0 0 0 0 0 28 7 39 0 0 0 0 0 0 0 0 0 0 0 0 0 0 0 0 0 0 0 0 0 0 0 0 0 0 0 0 0 0 0 0 0
0 0 0 0 0 0 0 2 1 4 16 31 0 0 0 0 0 0 0 0 0 0 0 0 0 0 0 0 0 0 0 0 0 0 0 0 0 0 0 0 0 0 0 0 0
0 0 0 0 0 0 10 10 2 1 15 0 0 0 0 0 0 0 4 0 0 0 0 0 0 0 0 0 0 0 0 0 0 0 0 0 0 0 0 0 0 0 0 0 0
0 0 0 0 0 1 0 7 38 19 1 0 0 0 2 0 0 0 1 0 0 0 0 0 0 0 0 0 0 0 0 0 0 0 0 0 0 0 0 0 0 0 0 0 0
0 14 0 0 0 0 13 32 29 0 0 0 0 0 0 0 0 1 2 1 0 0 0 0 0 0 0 0 0 0 0 0 0 0 0 1 0 0 0 0 0 0 0 0 0
0 0 0 0 3 6 0 1 0 0 0 0 0 0 0 0 0 0 0 0 0 0 0 0 0 0 0 0 0 0 0 0 0 0 0 0 0 0 0 0 0 0 0 0 0
0 0 0 0 0 0 0 0 0 0 0 0 0 0 0 0 0 0 0 0 0 0 0 0 0 0 0 0 0 0 0 0 0 0 0 0 0 0 0 0 0 0 0 0 0
0 0 0 0 0 0 0 0 0 0 0 0 0 0 0 0 0 0 0 0 0 0 0 0 0 0 0 0 0 0 0 0 0 0 0 0 0 0 0 0 0 0 0 0 0
0 0 0 0 0 0 0 0 0 0 0 0 0 0 0 0 0 0 0 0 0 0 0 0 0 0 0 0 0 0 0 0 0 0 0 0 0 0 0 0 0 0 0 0 0
0 0 0 0 0 0 0 0 0 0 0 0 0 0 0 0 0 0 0 0 0 0 0 0 0 0 0 0 0 0 0 0 0 0 0 0 0 0 0 0 0 0 0 0 0
CIN
-0 -0 -0 -0 -1 -1 -0 -0 -1 -0 -0 -0 -0 -0 -1 -0 -0 -0 -0 -0 -0 -0 -0 -0 -0 -0 -0 -0 -0 -0 -0 -0 -0 -0 -0 -0 -0 -0 -0 -0 -0 -0 -0 -93 -210
-0 -0 -0 -0 -0 -0 -0 -0 -1 -0 -0 -0 -0 -0 -0 -0 -0 -0 -0 -0 -0 -0 -0 -0 -0 -0 -0 -0 -0 -0 -0 -0 -0 -0 -0 -0 -0 -0 -0 -0 -0 -0 -0 -0 -148
-0 -0 -0 -0 -0 -0 -0 -0 -0 -0 -0 -0 -0 -0 -0 -0 -0 -0 -0 -0 -0 -0 -0 -0 -0 -0 -0 -0 -0 -0 -0 -0 -0 -0 -0 -0 -0 -0 -0 -0 -0 -0 -0 -0 -21
-0 -0 -0 -0 -0 -0 -0 -0 -0 -0 -2 -0 -0 -0 -0 -0 -0 -0 -0 -0 -0 -0 -0 -0 -0 -0 -0 -0 -0 -0 -0 -0 -0 -0 -0 -0 -0 -0 -0 -0 -0 -0 -0 -0 -0
-0 -0 -0 -0 -0 -0 -0 -0 -0 -0 -0 -0 -0 -0 -0 -0 -0 -0 -0 -0 -0 -0 -0 -0 -0 -0 -0 -0 -0 -0 -0 -0 -0 -0 -0 -0 -0 -0 -0 -0 -0 -0 -0 -0 -0
-0 -0 -0 -0 -0 -0 -0 -0 -0 -1 -0 -0 -0 -0 -0 -0 -0 -0 -0 -0 -0 -0 -0 -0 -0 -0 -0 -0 -0 -0 -0 -0 -0 -0 -0 -0 -0 -0 -0 -0 -0 -0 -0 -0 -0
-0 -0 -0 -0 -0 -1 -0 -1 -0 -0 -0 -0 -0 -0 -0 -0 -0 -0 -0 -0 -0 -0 -0 -0 -0 -0 -0 -0 -0 -0 -0 -0 -0 -0 -0 -0 -0 -0 -0 -0 -0 -0 -0 -0 -0
-0 -0 -0 -0 -0 -0 -0 -0 -0 -0 -0 -0 -0 -0 -0 -0 -0 -0 -0 -0 -0 -0 -0 -0 -0 -0 -0 -0 -0 -0 -0 -0 -0 -0 -0 -0 -0 -0 -0 -0 -0 -0 -0 -0 -0
-0 -0 -0 -0 -0 -0 -0 -0 -0 -0 -0 -0 -0 -0 -0 -0 -0 -0 -0 -0 -0 -0 -0 -0 -0 -0 -0 -0 -0 -0 -0 -0 -0 -0 -0 -0 -0 -0 -0 -0 -0 -0 -0 -0 -0
-0 -0 -0 -0 -0 -1 -0 -0 -0 -0 -0 -0 -0 -0 -0 -0 -0 -0 -0 -0 -0 -0 -0 -0 -0 -0 -0 -0 -0 -0 -0 -0 -0 -0 -0 -0 -0 -0 -0 -0 -0 -0 -0 -0 -0
-1 -1 -0 -0 -0 -1 -0 -0 -0 -0 -0 -0 -0 -0 -0 -0 -0 -0 -0 -0 -0 -0 -0 -0 -0 -0 -0 -0 -0 -0 -0 -0 -0 -0 -0 -0 -0 -0 -0 -0 -0 -0 -0 -0 -0
-0 -0 -0 -0 -0 -1 -0 -0 -0 -0 -0 -0 -0 -0 -0 -0 -0 -0 -0 -0 -0 -0 -0 -0 -0 -0 -0 -0 -0 -0 -0 -0 -0 -0 -0 -0 -0 -0 -0 -0 -0 -0 -0 -0 -0
-0 -0 -0 -0 -0 -0 -0 -0 -0 -0 -0 -0 -0 -0 -0 -0 -0 -0 -0 -0 -0 -0 -0 -0 -0 -0 -0 -0 -0 -0 -0 -0 -0 -0 -0 -0 -0 -0 -0 -0 -0 -0 -0 -0 -0
-0 -0 -1 -1 -0 -0 -0 -0 -0 -0 -0 -0 -0 -0 -0 -0 -0 -0 -0 -0 -0 -0 -0 -0 -0 -0 -0 -0 -0 -0 -0 -0 -0 -0 -0 -0 -0 -0 -0 -0 -0 -0 -0 -0 -0
-0 -0 -0 -0 -0 -0 -0 -0 -0 -0 -0 -0 -0 -0 -0 -0 -0 -0 -0 -0 -0 -0 -0 -0 -0 -0 -0 -0 -0 -0 -0 -0 -0 -0 -0 -0 -0 -0 -0 -0 -0 -0 -0 -0 -0
-0 -0 -0 -0 -0 -0 -0 -0 -0 -0 -0 -0 -0 -0 -0 -0 -0 -0 -0 -0 -0 -0 -0 -0 -0 -0 -0 -0 -0 -0 -0 -0 -0 -0 -0 -0 -0 -0 -0 -0 -0 -0 -0 -0 -0
-0 -0 -0 -0 -0 -0 -0 -0 -0 -11 -11 -3 -0 -0 -0 -0 -0 -0 -0 -0 -0 -0 -0 -0 -0 -0 -0 -0 -0 -0 -0 -0 -0 -0 -0 -0 -0 -0 -0 -0 -0 -0 -0 -0 -0
-0 -0 -0 -0 -0 -0 -0 -0 -18 -20 -3 -16 -0 -0 -0 -0 -0 -0 -0 -0 -0 -0 -0 -0 -0 -0 -0 -0 -0 -0 -0 -0 -0 -0 -0 -0 -0 -0 -0 -0 -0 -0 -0 -0 -0
-0 -0 -0 -0 -0 -0 -0 -37 -24 -9 -5 -2 -0 -0 -0 -0 -0 -0 -0 -0 -0 -0 -0 -0 -0 -0 -0 -0 -0 -0 -0 -0 -0 -0 -0 -0 -0 -0 -0 -0 -0 -0 -0 -0 -0
-0 -0 -0 -0 -0 -0 -20 -28 -1 -10 -24 -0 -0 -0 -0 -0 -3 -2 -20 -25 -0 -0 -0 -0 -0 -0 -0 -0 -0 -0 -0 -0 -0 -0 -0 -0 -0 -0 -0 -0 -0 -0 -0 -0 -0
-0 -0 -0 -0 -0 -21 -0 -3 -4 -9 -9 -0 -0 -7 -27 -0 -3 -6 -20 -0 -0 -0 -0 -0 -0 -0 -0 -0 -0 -0 -0 -0 -0 -0 -0 -0 -0 -0 -0 -0 -0 -0 -0 -0 -0
-0 -18 -0 -0 -0 -0 -10 -25 -28 -0 -0 -0 -0 -0 -1 -0 -0 -29 -25 -1 -0 -0 -0 -0 -0 -0 -0 -0 -0 -0 -0 -0 -0 -0 -0 -8 -0 -0 -0 -0 -0 -0 -0 -0 -0
-0 -0 -0 -0 -8 -18 -0 -22 -0 -0 -0 -0 -0 -0 -0 -0 -0 -0 -0 -0 -0 -0 -0 -0 -0 -0 -0 -0 -0 -0 -0 -0 -0 -0 -0 -0 -0 -0 -0 -0 -0 -0 -0 -0 -0
-0 -0 -0 -0 -0 -0 -0 -0 -0 -0 -0 -0 -0 -0 -0 -0 -0 -0 -0 -0 -0 -0 -0 -0 -0 -0 -0 -0 -0 -0 -0 -0 -0 -0 -0 -0 -0 -0 -0 -0 -0 -0 -0 -0 -0
-0 -0 -0 -0 -0 -0 -0 -0 -0 -0 -0 -0 -0 -0 -0 -0 -0 -0 -0 -0 -0 -0 -0 -0 -0 -0 -0 -0 -0 -0 -0 -0 -0 -0 -0 -0 -0 -0 -0 -0 -0 -0 -0 -0 -0
-0 -0 -0 -0 -0 -0 -0 -0 -0 -0 -0 -0 -0 -0 -0 -0 -0 -0 -0 -0 -0 -0 -0 -0 -0 -0 -0 -0 -0 -0 -0 -0 -0 -0 -0 -0 -0 -0 -0 -0 -0 -0 -0 -0 -0
-0 -0 -0 -0 -0 -0 -0 -0 -0 -0 -0 -0 -0 -0 -0 -0 -0 -0 -0 -0 -0 -0 -0 -0 -0 -0 -0 -0 -0 -0 -0 -0 -0 -0 -0 -0 -0 -0 -0 -0 -0 -0 -0 -0 -0
Wind_Speed
32 31 31 30 28 24 8 12 24 25 26 26 26 26 27 27 29 30 38 32 34 26 18 19 23 25 24 29 26 23 33 38 31 25 25 23 25 24 23 21 18 20 15 9 3
32 31 30 29 26 22 18 10 14 22 23 24 25 25 25 25 28 36 36 35 33 25 22 21 25 24 26 28 28 28 32 36 27 28 32 30 29 27 24 22 18 12 11 7 3
31 31 30 28 25 23 19 18 19 21 22 22 23 24 23 22 25 29 26 42 35 24 23 18 18 23 28 25 30 33 38 36 33 33 33 32 33 26 28 23 16 14 13 9 8
31 31 29 28 26 24 21 20 19 19 21 22 22 22 22 20 21 18 18 22 28 22 20 18 19 23 27 29 27 34 36 37 37 37 35 36 33 32 30 28 22 17 17 16 8
32 30 30 28 27 25 23 22 21 20 20 21 21 20 19 22 26 18 18 13 18 20 20 20 19 19 24 24 26 33 33 31 31 36 37 36 39 37 38 31 23 24 20 18 19
33 31 30 28 27 25 25 23 22 21 21 21 21 20 20 25 19 18 8 5 13 19 21 20 20 19 21 21 24 23 28 31 31 34 33 37 41 34 35 28 27 24 27 25 23
33 31 30 28 28 26 26 25 24 23 22 21 20 21 23 27 15 12 5 11 9 15 20 22 18 18 17 21 22 22 28 28 28 30 32 29 37 34 31 27 29 28 27 29 29
32 30 29 29 28 27 27 26 25 24 23 20 18 19 26 22 20 23 18 16 18 19 16 18 17 21 21 20 21 23 22 28 24 22 24 22 37 32 30 33 38 38 37 34 33
30 29 29 30 28 28 27 26 25 23 21 14 16 18 24 21 22 19 16 16 16 20 21 14 14 21 19 21 25 23 27 27 26 22 23 25 36 35 34 38 41 41 40 37 36
29 29 30 30 29 27 26 24 19 14 12 13 19 19 23 18 17 17 13 9 13 13 17 19 19 21 20 21 29 28 28 27 26 21 26 31 36 34 33 35 39 35 34 33 35
29 30 30 30 29 26 22 15 13 18 20 17 15 17 14 16 9 13 11 12 17 16 18 18 21 26 24 24 24 26 28 30 29 25 27 33 32 30 30 31 33 32 32 34 32
24 27 30 30 29 25 20 20 18 15 20 33 29 26 24 18 14 9 8 13 16 22 19 20 29 26 24 23 25 27 31 33 31 28 26 29 31 30 28 28 27 25 26 27 26
24 24 26 30 28 20 21 28 16 16 18 18 19 22 19 11 16 16 8 11 14 18 19 23 21 22 24 25 26 28 30 31 29 30 26 30 34 29 28 28 28 25 23 25 27
26 24 25 26 17 13 13 17 30 17 17 15 17 20 16 16 17 13 10 13 14 15 14 20 28 25 22 26 23 32 29 31 32 28 35 25 42 31 30 30 30 33 35 37 37
25 27 24 20 18 15 13 14 3 7 14 8 10 12 12 12 11 13 9 13 15 13 15 16 14 15 19 21 19 25 26 24 24 28 27 28 35 32 28 35 35 34 36 38 38
25 25 21 12 8 20 18 12 11 12 16 11 11 11 9 17 16 11 12 13 14 17 18 21 19 20 19 21 21 23 21 21 22 25 35 29 32 35 32 31 33 33 33 33 28
26 22 15 11 10 10 13 6 9 14 10 11 11 12 10 12 18 10 9 11 13 17 23 23 24 22 22 23 22 20 22 28 30 30 35 25 30 31 26 27 29 28 28 26 22
25 20 6 16 8 18 8 9 13 13 9 13 8 5 8 7 16 11 8 13 15 14 16 19 22 17 17 17 20 20 21 27 33 32 32 27 29 26 23 24 23 20 19 19 20
25 16 12 20 20 15 7 9 12 10 13 11 3 5 11 13 11 12 13 11 17 18 18 17 16 14 15 16 17 20 24 19 26 29 34 31 31 26 25 25 21 20 19 20 20
21 18 17 7 8 10 10 12 9 18 20 15 11 12 12 13 12 11 12 13 13 15 13 15 18 19 20 19 19 19 14 25 25 33 37 31 30 28 23 20 19 21 21 22 22
16 15 13 9 9 11 8 16 18 21 18 13 11 12 10 9 8 9 10 11 11 12 10 12 16 18 18 19 20 22 21 21 22 25 33 37 32 23 16 18 22 25 27 28 29
17 14 13 10 14 13 15 15 18 13 12 12 12 12 12 11 13 13 14 14 13 14 14 15 15 19 19 24 20 17 19 19 24 27 26 29 31 14 18 24 28 34 35 33 33
19 16 14 12 16 15 20 18 16 14 14 14 14 12 11 12 15 15 15 13 10 15 13 13 17 20 21 18 17 17 18 19 22 24 29 33 31 18 30 36 38 43 39 36 34
16 15 16 15 17 18 17 18 13 13 13 13 13 11 11 13 14 14 14 16 15 13 13 14 17 18 22 22 21 25 25 25 24 30 33 34 39 37 40 44 46 43 35 32 26
16 15 14 15 15 19 16 17 13 13 14 14 15 14 12 14 14 14 13 13 14 14 15 16 18 18 21 22 23 27 30 29 29 30 37 39 42 40 36 36 30 27 23 24 24
17 16 17 18 20 19 16 17 13 12 15 15 12 14 13 15 15 13 14 16 16 15 15 16 19 19 25 25 26 29 29 28 30 32 33 35 39 33 26 20 22 22 24 26 29
19 18 16 20 18 19 17 16 15 13 16 13 11 14 15 13 15 16 17 16 15 14 15 15 15 19 24 22 28 30 24 22 23 24 23 28 27 22 22 25 26 24 25 28 31
Wind_Direction
334 335 335 335 329 300 212 208 269 260 247 240 244 243 244 248 252 250 239 244 243 251 257 253 249 248 253 249 250 255 250 248 251 256 258 271 280 290 291 297 286 290 294 293 291
329 325 325 321 309 292 270 209 213 252 243 239 238 239 245 252 251 241 241 239 237 241 247 247 244 246 248 250 248 248 251 250 256 256 261 272 277 283 290 294 294 297 322 318 274
332 315 311 307 297 290 279 267 262 263 251 245 243 244 251 256 253 246 246 221 229 237 241 249 252 246 246 254 249 249 249 252 257 262 266 270 271 282 283 286 290 290 299 326 306
331 311 301 303 292 288 278 275 264 256 256 251 250 253 253 253 246 250 258 241 230 232 239 245 248 248 249 249 254 254 257 257 256 260 264 266 272 272 277 279 285 290 295 301 323
324 310 300 294 291 285 280 275 269 261 253 252 254 255 256 245 239 262 268 244 225 228 234 239 241 249 251 256 261 258 261 267 270 264 263 266 263 268 271 277 282 284 294 293 293
314 310 302 289 289 281 280 274 270 264 255 245 247 250 253 239 259 265 286 226 226 226 232 238 243 246 259 264 258 272 266 267 268 268 273 268 264 270 273 283 280 284 284 288 289
306 303 299 286 286 281 278 273 269 265 257 251 251 246 245 230 261 264 281 251 225 233 236 239 248 250 265 265 270 274 271 272 271 273 275 277 272 272 281 285 282 284 285 286 286
301 294 296 293 284 280 276 269 265 261 260 259 264 259 230 244 255 238 243 244 238 239 247 244 246 259 267 271 275 275 278 268 275 281 282 277 271 277 282 283 278 277 281 284 284
299 291 292 293 283 280 274 267 259 258 259 278 270 262 233 258 241 241 248 244 235 236 237 251 257 262 267 263 267 272 267 271 275 280 282 280 278 279 283 283 279 277 279 281 282
297 293 291 293 288 277 275 262 263 281 282 278 264 260 247 249 252 250 252 249 243 238 247 253 258 258 263 261 259 265 268 271 273 280 285 283 284 284 286 293 284 277 278 284 285
291 293 289 289 290 280 278 275 279 266 256 260 266 256 262 268 267 254 249 246 251 251 248 254 255 254 261 266 271 272 272 273 273 281 287 284 286 290 294 301 294 278 280 286 287
281 286 287 289 287 286 273 255 264 281 262 229 240 247 251 267 255 258 237 252 254 249 255 260 256 261 268 271 271 272 270 271 277 282 288 288 287 293 298 302 307 295 286 290 289
282 278 282 289 285 286 257 231 261 292 271 269 258 250 252 275 260 257 229 253 254 255 257 257 273 266 268 270 271 271 270 272 275 283 289 289 286 293 297 299 301 302 299 296 296
285 279 281 287 299 301 272 264 207 283 268 272 258 253 260 268 266 267 241 247 264 255 263 266 263 268 269 268 275 272 279 277 277 280 279 291 280 290 293 294 296 293 291 289 290
284 284 278 273 255 267 278 286 332 307 278 291 278 277 268 261 283 263 251 255 259 263 263 272 281 280 274 275 289 281 291 284 280 280 286 288 286 290 297 292 296 300 299 296 297
285 282 270 349 116 218 243 250 273 292 280 286 278 272 272 256 269 262 253 264 273 267 271 271 283 284 283 287 292 290 293 294 291 286 279 288 289 290 296 299 300 304 308 307 309
289 274 205 60 303 276 241 280 312 284 302 276 280 275 276 259 264 264 253 251 269 264 264 273 274 282 283 281 290 294 290 282 281 280 282 296 293 294 306 308 309 309 311 313 319
290 268 77 133 255 241 269 300 288 291 293 278 292 293 269 261 256 258 255 261 268 278 287 279 273 281 292 292 290 293 289 280 280 282 287 293 291 297 312 320 323 328 326 329 330
293 316 317 228 162 243 292 310 300 276 270 285 312 280 280 272 270 273 272 277 279 278 279 284 284 296 303 304 299 291 288 298 292 293 289 291 295 303 312 314 318 321 327 327 327
297 292 281 33 72 273 279 291 305 214 240 266 277 285 274 279 276 279 285 294 300 295 288 293 284 290 295 301 307 301 301 292 294 287 286 293 295 297 308 315 321 318 321 322 323
312 296 302 71 261 265 285 256 236 229 249 305 289 285 288 289 287 290 298 310 316 316 317 305 298 298 307 304 300 300 298 302 297 294 290 292 295 309 309 316 316 317 316 310 306
307 288 285 268 262 269 266 267 260 281 307 299 292 292 281 281 282 283 286 289 294 299 308 308 314 301 303 304 310 310 304 304 294 295 298 298 295 317 312 309 309 306 303 305 306
291 280 277 273 264 272 264 265 270 283 297 288 290 300 303 292 287 288 295 306 326 312 317 319 309 303 306 313 321 315 316 314 308 303 294 293 298 309 304 299 302 302 302 303 304
286 283 274 272 274 274 271 269 290 297 303 300 301 311 308 301 309 306 305 303 311 322 330 324 313 307 301 305 311 304 304 307 306 298 298 293 297 300 302 301 300 302 305 309 312
285 293 290 271 275 270 290 272 284 296 307 308 296 297 306 308 308 307 317 319 318 320 323 325 313 317 316 314 311 307 304 304 300 299 295 300 298 303 306 307 311 315 316 315 315
284 290 291 283 276 276 282 280 280 296 293 296 308 306 306 306 311 314 314 314 313 316 321 324 319 322 315 317 314 309 307 306 305 304 300 302 302 310 315 322 322 323 320 317 314
286 286 294 277 282 277 275 274 277 286 297 307 319 311 311 318 320 316 315 315 317 318 320 326 331 328 320 329 321 312 319 319 319 318 315 308 314 322 318 315 314 316 320 319 315